User: anonymous   Login
Location: Alafon
(8.4500°N, 4.2333°E)
Time: 08:02:12
(UTC+00:00)
Language:

Explorer 7 - Orbit

View from above orbital plane
View from above orbital plane
View from above satellite
View from above satellite

Ground track
Ground track

The orbit data is extracted from the following two-line orbital elements,

1 00022U 59009A   21211.94053331  .00000144  00000-0  33802-4 0  9991
2 00022  50.2851 344.7573 0138313  19.9873 340.6418 14.95636120531491
Epoch (UTC): 30 July 2021 22:34:22
Eccentricity: 0.0138313
inclination: 50.2851°
perigee height: 484 km
apogee height: 676 km
right ascension of ascending node: 344.7573°
argument of perigee: 19.9873°
revolutions per day: 14.95636120
mean anomaly at epoch: 340.6418°
orbit number at epoch: 53149

The dashed part of the orbit path shows where the satellite is in the earth's shadow,  

DLR